Miscellaneous Local Product
Issued by NWS North Platte, NE

Home | Current Version | Previous Version | Text Only | Print | Product List | Glossary On
Versions: 1 2 3 4 5 6 7 8 9 10 11 12 13 14 15 16 17 18 19 20 21 22 23 24 25 26 27 28 29 30 31 32 33 34 35 36 37 38 39 40 41 42 43 44 45 46 47 48 49 50
225
AXUS43 KLBF 171010
MISLBF


WESTERN AND NORTH CENTRAL NEBRASKA HOURLY WEATHER ROUNDUP
NATIONAL WEATHER SERVICE NORTH PLATTE NE
500 AM CDT TUE OCT 17 2017

NOTE: "FAIR" INDICATES FEW OR NO CLOUDS BELOW 12,000 FEET WITH NO
SIGNIFICANT WEATHER AND/OR OBSTRUCTIONS TO VISIBILITY.

NOTE: STATIONS NOT REPORTING VARIABLES SUCH AS SKY/WEATHER OR
PRESSURE ARE PROVIDED BY RAWS AND APRS NETWORKS AND ARE NOT UNDER
NATIONAL WEATHER SERVICE QUALITY CONTROL.

...OBSERVATIONS IN AND NEAR THE EASTERN PANHANDLE OF NEBRASKA...

CITY           SKY/WX    TMP DP  RH WIND       PRES   REMARKS
PINE RIDGE     CLEAR     30  27  88 CALM      30.11F
GORDON         FAIR      37  29  73 CALM      30.12S
CHADRON        CLOUDY    30  23  75 SW3       30.12F
ALLIANCE       CLOUDY    27  22  81 SW5       30.15F WCI  22
SIDNEY         CLOUDY    32  24  72 NW9       30.19F WCI  24
$$

...OBSERVATIONS IN NORTHERN NEBRASKA AND FAR SOUTHERN SOUTH DAKOTA...

CITY           SKY/WX    TMP DP  RH WIND       PRES   REMARKS
WINNER         FAIR      45  35  68 SW6       30.06S
VALENTINE      CLEAR     36  31  82 W8        30.10S WCI  30
THEDFORD       CLEAR     38  31  77 SW3       30.13S
AINSWORTH      CLEAR     42  34  75 W8        30.10R
O`NEILL        CLEAR     45  40  81 W6        30.07S
ORD            CLEAR     40  35  83 NW9       30.07R WCI  34
BROKEN BOW     CLEAR     44  36  73 CALM      30.09S
VALENTINE NWR    N/A     42  30  63 CALM        N/A
HALSEY           N/A     42  29  61 CALM        N/A
BUTTE            N/A     46  37  71 SW5         N/A
CHAMBERS         N/A     41  35  80 CALM        N/A
EWING            N/A     40  36  85 CALM        N/A
$$

...OBSERVATIONS IN SOUTHWEST NEBRASKA AND FAR NORTHEAST COLORADO...

CITY           SKY/WX    TMP DP  RH WIND       PRES   REMARKS
WRAY           FAIR      34  28  80 W6        30.19S WCI  29
HOLYOKE        FAIR      37  30  75 W10       30.18S WCI  30
IMPERIAL       CLOUDY    41  29  62 NW8       30.15F
OGALLALA       CLOUDY    34  31  90 W3        30.17R
NORTH PLATTE   CLEAR     35  32  88 NW3       30.13S
MCCOOK         CLEAR     39  35  86 W9        30.13R WCI  33
LEXINGTON      CLEAR     39  35  83 W8        30.11R WCI  34
STAPLETON        N/A     42  32  67 CALM        N/A
GOTHENBURG       N/A     43  32  65 W8          N/A
CALLAWAY         N/A     45  35  68 NW6         N/A
$$

...OBSERVATIONS IN CENTRAL LINCOLN COUNTY AREA...

CITY           SKY/WX    TMP DP  RH WIND       PRES   REMARKS
N.P. AIRPORT   CLEAR     35  32  88 NW3       30.13S
N.P. DOWNTOWN    N/A     38  33  81 CALM        N/A
N.P. SOUTHEAST   N/A     39  32  76 CALM        N/A
N.P. HILLCREST   N/A     41  32  69 NW3         N/A
$$

...SOME OBSERVATIONS FROM AROUND THE REGION...

CITY           SKY/WX    TMP DP  RH WIND       PRES   REMARKS
DENVER         CLOUDY    45  16  31 SW10      30.25S
LIMON          CLOUDY    38  20  48 NW8       30.26S WCI  32
ASPEN          CLOUDY    30   9  41 SW7       30.45F WCI  23
LARAMIE        CLOUDY    36   8  31 SE8       30.33F WCI  30
CASPER         CLOUDY    38  18  44 SW13      30.20F WCI  30
CHEYENNE       CLOUDY    37  13  37 W9        30.27F WCI  30
SCOTTSBLUFF    CLOUDY    30  25  81 NW5       30.17F WCI  25
GRAND ISLAND   CLEAR     43  38  82 SW7       30.08S
OMAHA          CLEAR     49  41  74 SE9       30.10S
SIOUX FALLS    CLEAR     39  37  92 CALM      30.03F
PIERRE         CLEAR     43  35  73 W7        30.01F
RAPID CITY     CLEAR     40  26  57 W9        30.07F WCI  34
BISMARCK       CLEAR     34  31  88 CALM      29.96S
KANSAS CITY    PTCLDY    49  40  71 S7        30.20S
HILL CITY      CLEAR     44  38  79 W8        30.10F
WICHITA        CLEAR     47  42  83 S9        30.19F
DODGE CITY     CLEAR     46  35  65 S12       30.14F
OKLAHOMA CITY  PTCLDY    43  40  89 S7        30.24S
DALLAS         CLEAR     53  43  68 CALM      30.25F
AMARILLO       CLEAR     43  36  76 SW13      30.21F
$$




USA.gov is the U.S. government's official web portal to all federal, state and local government web resources and services.